Flag for Russia Weather past 2 weeks in Voronezh, Russia

Now
79 °F

Sunny.


Feels Like: 78 °F
Forecast: 58 / 81 °F
Wind: 6 mph from East

Location: Voronez

Current Time: Jul 22, 2014 at 6:16:21 PM

Latest Report: Jul 22, 2014 at 5:30 PM


Visibility: 10 mi

Pressure: 29.92 "Hg

Humidity: 28%

Dew point: 43 °F

Location of VoronezhLocation

Historic Weather in Voronezh — Graph

°F

Voronezh temperature yesterday

Maximum temperature yesterday: 84 °F (at 2:00 PM)
Minimum temperature yesterday: 55 °F (at 3:30 AM)
Average temperature yesterday: 69 °F

Past Weeks' High & Low Weather Summary

 TemperatureHumidityPressure
High91 °F (Jul 17, 1:30 PM)88% (Jul 11, 6:30 AM)30.12 "Hg (Jul 11, 6:30 AM)
Low50 °F (Jul 14, 4:30 AM)14% (Jul 14, 12:00 PM)29.80 "Hg (Jul 10, 5:00 AM)
Average72 °F50%29.97 "Hg
* Reported Jul 7 5:00 PM — Jul 22 5:00 PM, Voronezh, Weather by CustomWeather, © 2014

Note: Actual official high and low records may vary slightly from our data, if they occured in-between our weather recording intervals... More about our weather records

Advertising

Voronezh weather history for previous 24 hours

 ConditionsComfort  
Time TempWeatherWind HumidityBarometerVisibility
5:00 PM
Jul 22
79 °FSunny.8 mph28%29.92 "Hg10 mi
4:30 PM79 °FSunny.10 mph28%29.92 "Hg10 mi
4:00 PM81 °FPassing clouds.6 mph28%29.92 "HgN/A
3:30 PM81 °FPassing clouds.8 mph28%29.92 "HgN/A
3:00 PM79 °FPassing clouds.8 mph30%29.92 "HgN/A
2:30 PM77 °FSunny.8 mph32%29.92 "Hg10 mi
2:00 PM75 °FPartly sunny.8 mph34%29.92 "Hg6 mi
1:30 PM73 °FSunny.13 mph36%29.92 "Hg10 mi
12:00 PM68 °FSunny.10 mph46%29.92 "Hg10 mi
11:30 AM70 °FSunny.8 mph43%29.92 "Hg10 mi
11:00 AM68 °FSunny.8 mph46%29.92 "Hg10 mi
10:30 AM66 °FSunny.8 mph49%29.92 "Hg10 mi
10:00 AM64 °FPartly sunny.8 mph49%29.92 "HgN/A
9:30 AM64 °FPartly sunny.10 mph49%29.92 "HgN/A
9:00 AM63 °FPartly sunny.8 mph49%29.92 "HgN/A
8:30 AM63 °FPartly sunny.8 mph49%29.92 "HgN/A
8:00 AM63 °FPartly sunny.3 mph49%29.89 "HgN/A
7:30 AM61 °FSunny.3 mph52%29.89 "Hg10 mi
7:00 AM61 °FSunny.6 mph48%29.89 "Hg10 mi
6:30 AM61 °FSunny.6 mph48%29.89 "Hg10 mi
6:00 AM63 °FClear.8 mph45%29.86 "Hg10 mi
5:30 AM63 °FClear.8 mph45%29.86 "Hg10 mi
5:00 AM63 °FClear.8 mph45%29.86 "Hg10 mi
4:30 AM64 °FPartly cloudy.10 mph43%29.86 "HgN/A
4:00 AM64 °FPartly cloudy.8 mph46%29.89 "HgN/A
3:30 AM64 °FPartly cloudy.6 mph46%29.86 "HgN/A
3:00 AM64 °FPartly cloudy.8 mph49%29.86 "HgN/A
2:30 AM64 °FPassing clouds.8 mph52%29.86 "HgN/A
2:00 AM66 °FPassing clouds.10 mph49%29.86 "HgN/A
1:00 AM68 °FPassing clouds.10 mph49%29.86 "HgN/A
12:30 AM68 °FPassing clouds.10 mph56%29.83 "HgN/A
12:00 AM68 °FPassing clouds.10 mph56%29.83 "HgN/A
11:30 PM
Jul 21
64 °FSprinkles. Passing clouds.8 mph73%29.83 "HgN/A
11:00 PM70 °FSprinkles. Passing clouds.6 mph46%29.83 "HgN/A
10:30 PM66 °FPassing clouds.No wind60%29.83 "HgN/A
10:00 PM66 °FPartly sunny.3 mph60%29.83 "HgN/A
9:30 PM70 °FPartly sunny.No wind40%29.80 "HgN/A
9:00 PM73 °FBroken clouds.3 mph31%29.80 "HgN/A
8:30 PM73 °FBroken clouds.8 mph31%29.80 "HgN/A
8:00 PM73 °FPartly sunny.8 mph41%29.83 "HgN/A
7:30 PM72 °FThundershowers. Partly sunny.1 mph53%29.80 "HgN/A
7:00 PM72 °FPartly sunny.3 mph57%29.80 "HgN/A
6:30 PM70 °FPartly sunny.6 mph64%29.80 "HgN/A
6:00 PM70 °FThundershowers. Partly sunny.8 mph60%29.80 "HgN/A
Weather by CustomWeather, © 2014

See weather overviewHow to use our weather pages